Simultaneous Nadir Overpasses (SNOs) Predictions

Prediction of SNOs between GOES-16 and NOAA-20 Satellite Orbit:

Table of predicted SNOs for the next 14.0 days since TLE Epoch: 12/21/2018
Index Date Time (GOES-16) GOES-16 Lat,Lon NOAA-20 Lat,Lon Distance(km) Time Diff (sec)
1 12/21/2018 18:38:44 -0.01, -75.20 -0.82, -78.71 400.12 80
2 12/22/2018 18:22:41 -0.01, -75.21 0.21, -74.18 117.07 80
3 12/24/2018 06:44:30 0.02, -75.22 0.94, -79.46 482.27 80
4 12/25/2018 06:23:06 0.02, -75.23 -0.03, -74.92 34.94 80
5 12/27/2018 18:26:19 -0.02, -75.26 -0.14, -75.70 50.15 80
6 12/28/2018 18:10:16 -0.02, -75.28 0.89, -71.17 467.86 80
7 12/30/2018 06:32:05 0.02, -75.31 0.26, -76.45 129.83 80
8 12/31/2018 06:10:41 0.02, -75.33 -0.71, -71.91 388.42 80
9 01/01/2019 18:33:44 -0.03, -75.36 -0.43, -77.23 212.69 15
10 01/02/2019 18:13:56 -0.03, -75.38 0.60, -72.70 306.06 80
11 01/04/2019 06:38:24 0.03, -75.42 0.61, -77.97 290.36 80




NCC Satellite Simultaneous Nadir Overpasses (SNOs) Prediction Service
